FW5335 Weather Reports


time (UTC)temp
C
wind
direction
speed
KPH
gust
KPH
rain 1hr
cm
rain 24hr
cm
rain mn
cm
humidity
%
barometer
mb
20260906141521 26 158 11.3 19.3 0.00 0.00 0.00 47 1018.8
20260906140540 25 203 19.3 32.2 0.00 0.00 0.00 44 1018.8
20260906135540 26 180 14.5 27.4 0.00 0.00 0.00 43 1018.8
20260906134539 25 203 16.1 24.1 0.00 0.00 0.00 44 1018.9
20260906133520 26 180 16.1 29.0 0.00 0.00 0.00 44 1019.1
20260906132518 26 180 12.9 25.7 0.00 0.00 0.00 43 1019.3
20260906131519 26 203 9.7 20.9 0.00 0.00 0.00 45 1019.5
20260906130542 26 203 11.3 20.9 0.00 0.00 0.00 44 1019.7
20260906125520 27 180 8.0 20.9 0.00 0.00 0.00 44 1019.8
20260906124517 26 203 12.9 24.1 0.00 0.00 0.00 44 1020.0
20260906123519 26 203 14.5 24.1 0.00 0.00 0.00 47 1020.1
20260906122518 26 203 14.5 27.4 0.00 0.00 0.00 46 1020.2
20260906121521 25 180 16.1 32.2 0.00 0.00 0.00 47 1020.4
20260906120521 25 158 17.7 33.8 0.00 0.00 0.00 46 1020.5
20260906115520 25 203 12.9 24.1 0.00 0.00 0.00 49 1020.4
20260906114518 25 203 12.9 29.0 0.00 0.00 0.00 50 1020.7
20260906113517 24 180 14.5 30.6 0.00 0.00 0.00 50 1020.7
20260906112520 25 203 11.3 19.3 0.00 0.00 0.00 48 1021.0
20260906111520 24 180 12.9 27.4 0.00 0.00 0.00 45 1021.2
20260906110517 25 180 12.9 22.5 0.00 0.00 0.00 44 1021.3
20260906104519 24 180 9.7 19.3 0.00 0.00 0.00 50 1021.5
20260906103517 23 203 8.0 14.5 0.00 0.00 0.00 58 1021.4
20260906102540 22 203 12.9 19.3 0.00 0.00 0.00 61 1021.8
20260906101521 23 158 11.3 24.1 0.00 0.00 0.00 60 1021.9
20260906100519 23 180 11.3 22.5 0.00 0.00 0.00 62 1022.1
20260906095518 22 203 12.9 20.9 0.00 0.00 0.00 62 1022.1
20260906094518 23 203 11.3 25.7 0.00 0.00 0.00 62 1022.0
20260906093518 22 180 12.9 22.5 0.00 0.00 0.00 63 1022.1
20260906092517 22 180 11.3 24.1 0.00 0.00 0.00 64 1022.3
20260906091559 22 203 11.3 24.1 0.00 0.00 0.00 63 1022.3
20260906090558 22 203 8.0 16.1 0.00 0.00 0.00 65 1022.4
20260906085538 22 203 9.7 19.3 0.00 0.00 0.00 66 1022.5
20260906084516 21 135 6.4 12.9 0.00 0.00 0.00 69 1022.6
20260906083516 20 180 8.0 12.9 0.00 0.00 0.00 71 1022.2
20260906082522 20 203 9.7 17.7 0.00 0.00 0.00 73 1022.1
20260906081600 19 180 9.7 19.3 0.00 0.00 0.00 75 1021.8
20260906080520 19 180 9.7 25.7 0.00 0.00 0.00 75 1021.8
20260906075520 18 158 4.8 8.0 0.00 0.00 0.00 78 1022.0
20260906074519 18 135 6.4 14.5 0.00 0.00 0.00 79 1021.8
20260906073520 17 158 8.0 17.7 0.00 0.00 0.00 82 1022.0
20260906072519 16 113 8.0 16.1 0.00 0.00 0.00 85 1021.9
20260906071520 15 90 3.2 6.4 0.00 0.00 0.00 89 1022.0
20260906070519 14 90 1.6 4.8 0.00 0.00 0.00 90 1022.1
20260906065520 13 68 3.2 6.4 0.00 0.00 0.00 91 1021.9
20260906064518 13 90 1.6 4.8 0.00 0.00 0.00 91 1022.1
20260906063518 13 68 1.6 4.8 0.00 0.00 0.00 90 1021.9
20260906062520 13 0.0 3.2 0.00 0.00 0.00 90 1021.9
20260906061521 12 68 1.6 4.8 0.00 0.00 0.00 90 1022.1
20260906060520 12 68 3.2 4.8 0.00 0.00 0.00 89 1022.1
20260906055519 12 68 3.2 6.4 0.00 0.00 0.00 89 1022.3
20260906054520 12 68 1.6 3.2 0.00 0.00 0.00 89 1022.4
20260906053519 13 68 1.6 4.8 0.00 0.00 0.00 89 1022.2
20260906052521 13 68 3.2 6.4 0.00 0.00 0.00 89 1022.3
20260906051518 13 68 4.8 6.4 0.00 0.00 0.00 88 1022.7
20260906050519 13 68 3.2 4.8 0.00 0.00 0.00 88 1022.7
20260906045518 13 68 3.2 4.8 0.00 0.00 0.00 88 1022.7
20260906044521 13 68 4.8 6.4 0.00 0.00 0.00 87 1022.6
20260906043519 13 90 3.2 4.8 0.00 0.00 0.00 87 1023.0
20260906042540 13 90 1.6 3.2 0.00 0.00 0.00 87 1023.0
20260906041539 13 90 3.2 4.8 0.00 0.00 0.00 87 1023.2
20260906040538 13 0.0 1.6 0.00 0.00 0.00 87 1023.4
20260906035519 13 0.0 3.2 0.00 0.00 0.00 87 1023.5
20260906034522 13 0.0 0.0 0.00 0.00 0.00 87 1023.7
20260906033519 13 0.0 1.6 0.00 0.00 0.00 87 1023.8
20260906032521 13 0.0 0.0 0.00 0.00 0.00 87 1024.0
20260906031521 13 90 1.6 3.2 0.00 0.00 0.00 87 1024.3
20260906030520 13 0.0 0.0 0.00 0.00 0.00 87 1024.3
20260906025517 13 0.0 0.0 0.00 0.00 0.00 86 1024.4
20260906024540 13 0.0 0.0 0.00 0.00 0.00 86 1024.4
20260906023518 13 0.0 0.0 0.00 0.00 0.00 86 1024.5
20260906022519 14 0.0 0.0 0.00 0.00 0.00 86 1024.7
20260906021520 14 0.0 0.0 0.00 0.00 0.00 86 1024.7
20260906020523 14 0.0 0.0 0.00 0.00 0.00 85 1024.9
20260906015519 14 0.0 0.0 0.00 0.00 0.00 85 1024.7
20260906014539 14 0.0 3.2 0.00 0.00 0.00 85 1024.9
20260906013518 14 0.0 0.0 0.00 0.00 0.00 84 1025.1
20260906012537 14 0.0 0.0 0.00 0.00 0.00 84 1024.8
20260906011518 14 0.0 0.0 0.00 0.00 0.00 84 1024.9
20260906010519 14 0.0 0.0 0.00 0.00 0.00 84 1024.8
20260906005518 14 0.0 0.0 0.00 0.00 0.00 84 1025.2
20260906004520 14 68 1.6 3.2 0.00 0.00 0.00 84 1025.3
20260906003519 13 0.0 3.2 0.00 0.00 0.00 83 1025.5
20260906002517 13 158 1.6 4.8 0.00 0.00 0.00 83 1025.4
20260906001519 13 158 1.6 3.2 0.00 0.00 0.00 83 1025.6
20260906000540 13 0.0 3.2 0.00 0.00 0.00 83 1025.7
20260905235519 13 158 3.2 4.8 0.00 0.00 0.00 83 1025.9
20260905234542 13 158 1.6 4.8 0.00 0.00 0.00 83 1026.0
20260905233518 13 0.0 0.0 0.00 0.00 0.00 83 1026.0
20260905232518 13 0.0 0.0 0.00 0.00 0.00 83 1026.0
20260905231517 13 0.0 0.0 0.00 0.00 0.00 83 1026.2
20260905230521 13 0.0 0.0 0.00 0.00 0.00 83 1026.2
20260905225520 13 0.0 0.0 0.00 0.00 0.00 82 1026.2
20260905224525 13 0.0 0.0 0.00 0.00 0.00 82 1026.3
20260905223520 13 0.0 0.0 0.00 0.00 0.00 82 1026.0
20260905222519 13 0.0 0.0 0.00 0.00 0.00 81 1026.2
20260905221521 13 0.0 0.0 0.00 0.00 0.00 81 1026.1
20260905220523 13 0.0 0.0 0.00 0.00 0.00 81 1025.9
20260905215541 13 0.0 0.0 0.00 0.00 0.00 81 1026.1
20260905214522 13 0.0 0.0 0.00 0.00 0.00 80 1026.0
20260905213542 13 0.0 0.0 0.00 0.00 0.00 80 1026.1
20260905212517 14 0.0 0.0 0.00 0.00 0.00 80 1026.2
20260905211518 14 0.0 0.0 0.00 0.00 0.00 79 1026.2
20260905210520 14 0.0 0.0 0.00 0.00 0.00 79 1026.3
20260905205518 14 0.0 3.2 0.00 0.00 0.00 78 1026.3
20260905204524 14 113 1.6 3.2 0.00 0.00 0.00 77 1026.2
20260905203517 15 113 1.6 4.8 0.00 0.00 0.00 77 1026.2
20260905202518 15 0.0 1.6 0.00 0.00 0.00 77 1026.0
20260905201519 15 45 4.8 6.4 0.00 0.00 0.00 75 1025.9
20260905200520 15 0.0 0.0 0.00 0.00 0.00 74 1026.1
20260905195520 15 0.0 0.0 0.00 0.00 0.00 73 1026.1
20260905194520 16 45 1.6 3.2 0.00 0.00 0.00 72 1026.2
20260905193522 16 0.0 1.6 0.00 0.00 0.00 71 1026.2
20260905192517 16 0.0 1.6 0.00 0.00 0.00 71 1026.3
20260905191519 16 0.0 0.0 0.00 0.00 0.00 70 1026.3
20260905190520 17 0.0 1.6 0.00 0.00 0.00 69 1026.1
20260905185517 17 45 1.6 4.8 0.00 0.00 0.00 68 1026.0
20260905184522 17 0 3.2 6.4 0.00 0.00 0.00 68 1025.9
20260905183521 17 45 4.8 8.0 0.00 0.00 0.00 67 1026.0
20260905182540 17 23 4.8 8.0 0.00 0.00 0.00 66 1026.1
20260905181522 17 45 6.4 12.9 0.00 0.00 0.00 65 1025.9
20260905180520 18 45 3.2 6.4 0.00 0.00 0.00 64 1026.0
20260905175517 18 68 4.8 9.7 0.00 0.00 0.00 64 1025.9
20260905174610 18 23 4.8 12.9 0.00 0.00 0.00 62 1025.9
20260905173521 19 68 6.4 12.9 0.00 0.00 0.00 61 1026.0
20260905172518 19 68 4.8 12.9 0.00 0.00 0.00 60 1026.0
20260905171540 20 68 6.4 14.5 0.00 0.00 0.00 59 1025.9
20260905170520 20 68 9.7 16.1 0.00 0.00 0.00 58 1025.7
20260905165517 20 45 4.8 12.9 0.00 0.00 0.00 57 1025.8
20260905164540 20 23 4.8 11.3 0.00 0.00 0.00 57 1025.5
20260905163518 21 0 6.4 14.5 0.00 0.00 0.00 56 1025.5
20260905162521 21 23 8.0 16.1 0.00 0.00 0.00 54 1025.6
20260905161522 22 338 4.8 11.3 0.00 0.00 0.00 52 1025.4
20260905160522 22 45 6.4 14.5 0.00 0.00 0.00 51 1025.4
20260905155518 22 225 3.2 9.7 0.00 0.00 0.00 49 1025.4
20260905154519 22 315 6.4 14.5 0.00 0.00 0.00 50 1025.3
20260905153522 23 248 4.8 14.5 0.00 0.00 0.00 48 1025.7
20260905152521 23 0 6.4 12.9 0.00 0.00 0.00 47 1025.7
20260905151521 23 23 4.8 8.0 0.00 0.00 0.00 49 1025.9
20260905150519 24 225 3.2 8.0 0.00 0.00 0.00 45 1025.8
20260905145537 24 225 6.4 19.3 0.00 0.00 0.00 47 1025.9
20260905144519 23 248 3.2 11.3 0.00 0.00 0.00 48 1025.9
20260905143527 23 225 4.8 11.3 0.00 0.00 0.00 45 1026.0
20260905142518 23 248 6.4 14.5 0.00 0.00 0.00 45 1026.1